Regional Weather Roundup
Issued by NWS San Angelo, TX

Home | Current Version | Previous Version | Text Only | Print | Product List | Glossary On
Versions: 1 2 3 4 5 6 7 8 9 10 11 12 13 14 15 16 17 18 19 20 21 22 23 24 25 26 27 28 29 30 31 32 33 34 35 36 37 38 39 40 41 42 43 44 45 46 47 48 49 50
000
ASUS44 KSJT 291310
RWRSJT
WEST CENTRAL TEXAS REGIONAL WEATHER ROUNDUP
NATIONAL WEATHER SERVICE SAN ANGELO TX
800 AM CDT WED MAR 29 2017

NOTE: "FAIR" INDICATES FEW OR NO CLOUDS BELOW 12,000 FEET WITH NO
SIGNIFICANT WEATHER AND/OR OBSTRUCTIONS TO VISIBILITY.

TXZ049-054-064>066-071>073-076>078-098-099-113-114-127-128-139-140-
154-155-168>170-291400
...LOCATIONS ACROSS WEST CENTRAL TEXAS...

CITY           SKY/WX    TMP DP  RH WIND       PRES   REMARKS
SAN ANGELO     CLEAR     47  41  80 W9        29.73R
ABILENE        CLEAR     50  49  96 S7        29.69R
DYESS AFB      PTCLDY    50  48  90 SW9       29.67R
JUNCTION       PTCLDY    46  46 100 CALM      29.76R FOG
SWEETWATER     CLEAR     52  43  71 SW18G24   29.70R
BROWNWOOD      CLEAR     52  52 100 CALM      29.74R
COLEMAN        SUNNY     52  47  82 SW3       29.72R
SONORA         CLEAR     50  45  81 SW5       29.82R
OZONA            N/A     46  39  76 MISG      29.80R
BRADY          NOT AVBL
$$

TEXAS PANHANDLE/OKLAHOMA PANHANDLE

CITY           SKY/WX    TMP DP  RH WIND       PRES   REMARKS
AMARILLO       RAIN      42  42 100 N18       29.78R WCI  34
BORGER         RAIN      44  43  96 NE13G25   29.78R FOG     WCI  38
CANADIAN       RAIN      48  47  96 N15G22    29.74R
DALHART        CLOUDY    41  39  93 N32G38    29.83R WCI  29
DUMAS          LGT SNOW  39  39  99 N24G32    29.80R WCI  29
GUYMON         NOT AVBL
HEREFORD       MIX PCPN  42  42  97 NE20G26   29.79R WCI  34
PAMPA          LGT RAIN  45  44  97 N16G24    29.76R WCI  37
PERRYTON       CLOUDY    45  43  95 N25G31    29.75R WCI  35
$$

SOUTHERN PANHANDLE/SOUTH PLAINS/ROLLING PLAINS

CITY           SKY/WX    TMP DP  RH WIND       PRES   REMARKS
LUBBOCK        MOCLDY    47  43  86 NW17      29.68R
SNYDER         CLEAR     47  44  87 SW10      29.69R
CHILDRESS      CLOUDY    52  50  93 NE7       29.69S
SEMINOLE       SUNNY     47  41  82 NW13      29.77R
$$

PERMIAN BASIN

CITY           SKY/WX    TMP DP  RH WIND       PRES   REMARKS
MIDLAND        CLEAR     49  38  65 W12       29.76R
ODESSA           N/A     46  37  71 MISG      29.77R
WINK             N/A    N/A N/A N/A MISG      29.77R
$$

FAR WEST/SOUTHWEST MOUNTAINS/TRANS PECOS

CITY           SKY/WX    TMP DP  RH WIND       PRES   REMARKS
ALPINE         SUNNY     50  27  40 W14G22    29.91R
DRYDEN           N/A     59  27  29 W14       29.77R
EL PASO        MOCLDY    54  31  41 W17G28    29.86R
FORT STOCKTON  CLEAR     55  30  38 W13       29.79R
GUADALUPE PASS CLOUDY    43  32  65 W30G44    29.83R WCI  32
MARFA          CLEAR     46  27  47 W10       29.88R
PECOS          SUNNY     52  32  46 CALM      29.79R
$$

DALLAS/FORT WORTH METROPLEX

CITY           SKY/WX    TMP DP  RH WIND       PRES   REMARKS
DFW AIRPORT    MOCLDY    60  59  96 S7        29.66F
FTW MEACHAM    CLOUDY    59  56  89 S6        29.68R
DAL-EXECUTIVE  CLOUDY    60  58  92 S9        29.67F
GRAND PRAIRIE  CLEAR     61  61 100 S7        29.69F
ADDISON        CLEAR     61  57  88 SE8       29.67F
MESQUITE       MOSUNNY   59  57  94 SE5       29.69R
LANCASTER      CLOUDY    58  56  92 SE6       29.71S
$$

NORTH CENTRAL TEXAS

CITY           SKY/WX    TMP DP  RH WIND       PRES   REMARKS
SHRMAN/DENISON CLOUDY    58  56  94 SE6       29.66F
GAINESVILLE    CLOUDY    55  54  96 SW5       29.69S
BRIDGEPORT     MOSUNNY   55  55 100 CALM      29.70S
DENTON         MOCLDY    57  57 100 S6        29.67S
WAXAHACHIE     CLOUDY    58  58 100 S7        29.71F
GRANBURY       MOSUNNY   57  55  94 S5        29.72R
$$

WESTERN NORTH TEXAS

CITY           SKY/WX    TMP DP  RH WIND       PRES   REMARKS
WICHITA FALLS  CLOUDY    53  52  96 SE9       29.66S
VERNON         PTSUNNY   54  50  86 S6        29.69R
BRECKENRIDGE   SUNNY     55  55 100 SE5       29.69R
COMANCHE       CLEAR     52  52 100 MISG      29.72R
$$

CENTRAL AND SOUTH CENTRAL TEXAS

CITY           SKY/WX    TMP DP  RH WIND       PRES   REMARKS
AUSTIN/BERGSTM MOCLDY    62  61  96 CALM      29.75F
WACO           CLOUDY    61  59  93 S12       29.74R
HILLSBORO      CLOUDY    59  58  96 S8        29.72R
TEMPLE         CLOUDY    60  59  96 S9        29.76R
KILLEEN-GRAY   PTCLDY    59  57  94 S9        29.75R
FORT HOOD      PTCLDY    57  57 100 S5        29.73R
GEORGETOWN     MOCLDY    61  55  82 S3        29.75S
LAGO VISTA     FOG       60  59  97 CALM      29.77S VSB 1/2
SAN MARCOS     CLOUDY    61  57  88 CALM      29.77F FOG
NEW BRAUNFELS  FOG       61  60  97 NW3       29.75S VSB 1/2
RANDOLPH AFB   FOG       61  61 100 NW3       29.76R VSB 3/4
SAN ANTONIO    DRZL/FOG  60  59  96 CALM      29.77R VSB 1/4
STINSON        FOG       61  59  93 CALM      29.74S VSB 3/4
PLEASANTON     NOT AVBL
LA GRANGE      CLOUDY    65  64  96 S5        29.76R
GIDDINGS       CLOUDY    61  60  95 CALM      29.77F
$$

EAST TEXAS

CITY           SKY/WX    TMP DP  RH WIND       PRES   REMARKS
PARIS          CLOUDY    59  55  88 E18G26    29.69F
CLARKSVILLE    NOT AVBL
TYLER          LGT RAIN  60  59  96 SE5       29.77F
LONGVIEW       LGT RAIN  61  61 100 E8        29.82F
PALESTINE      RAIN      60  60 100 SE7       29.84R
NACOGDOCHES    CLOUDY   N/A N/A N/A SE6       29.84F
$$

TEXAS HILL COUNTRY AND EDWARDS PLATEAU

CITY           SKY/WX    TMP DP  RH WIND       PRES   REMARKS
LLANO          RAIN      52  52 100 CALM      29.80R
HORSESHOE BAY  FAIR      55  53  95 CALM      29.77R
KERRVILLE      CLEAR     51  50  95 CALM      29.78R
FREDERICKSBRG  CLEAR     49  48  95 CALM      29.79R
ROCKSPRINGS    SUNNY     55  37  50 SW6       29.80S
HONDO          CLEAR     55  53  93 NE3       29.77R
UVALDE         SUNNY     50  49  97 CALM      29.78R
DEL RIO        CLEAR     50  49  96 CALM      29.78R
$$

SOUTHEAST TEXAS

CITY           SKY/WX    TMP DP  RH WIND       PRES   REMARKS
COLLEGE STN    TSTM      64  61  90 SW6       29.81R
CALDWELL       NOT AVBL
CROCKETT       TSTM      63  61  94 CALM      29.87S
BRENHAM        TSTM      64  63  96 E17       29.72F
HUNTSVILLE     CLOUDY    64  61  90 E3        29.83R
CONROE         CLOUDY    66  61  84 NE3       29.82S
HOUSTON BUSH   MOCLDY    72  67  84 E13       29.81F
HOUSTON HOBBY  PTCLDY    72  68  87 E6        29.80F
PERLAND        MOCLDY    74  68  81 E7        29.82F
WHARTON        CLOUDY    73  66  80 SE9       29.78R
$$

THE UPPER TEXAS COAST

CITY           SKY/WX    TMP DP  RH WIND       PRES   REMARKS
ORANGE         MOSUNNY   71  68  91 SE3       29.90R
PORT ARTHUR    PTSUNNY   69  66  90 SE3       29.87R
GALVESTON      CLOUDY    75  70  84 E7        29.83R HAZE
ANGLETON       CLOUDY    74  69  85 SE7       29.80R
BAY CITY       CLOUDY    72  70  93 E6        29.78R FOG
$$

TEXAS COASTAL BEND, RIO GRANDE PLAINS DEEP SOUTH TEXAS

CITY           SKY/WX    TMP DP  RH WIND       PRES   REMARKS
VICTORIA       TSTM      63  60  90 NW13      29.80R VSB 1/4
BEEVILLE       CLOUDY    65  59  80 N3        29.75S
ROCKPORT       NOT AVBL
PORT ARANSAS   CLOUDY    73  70  90 SE10      29.73S FOG
PORT LAVACA    CLOUDY    71  70  95 SE12      29.74F
CORPUS CHRISTI CLOUDY    74  72  93 SE9       29.73R
KINGSVILLE NAS CLOUDY    74  72  93 N15G21    29.74R
COTULLA        CLEAR     61  59  93 W6        29.77R
LAREDO         CLEAR     66  57  72 NW7       29.78R
BROWNSVILLE    CLOUDY    78  73  84 S18G24    29.70R
PORT ISABEL    CLOUDY    78  72  81 S10G23    29.70R HAZE
HEBBRONVILLE   CLOUDY    70  67  92 NE8       29.77R
MCALLEN        CLOUDY    78  70  76 SW5       29.72R
WESLACO        CLOUDY    76  70  82 SW9       29.71R HAZE
FALFURRIAS     CLOUDY    74  72  92 CALM      29.72R
EDINBURG       CLOUDY    78  70  75 SW6       29.72R
$$




USA.gov is the U.S. government's official web portal to all federal, state and local government web resources and services.